When you browse on this site, cookies collect data to enhance your experience and personalize the content and advertising you see.
Visit our Privacy Policy to learn more. By continuing to use the site, you agree to this use of cookies and data.

Hourly Weather Kulegash

Today, 4 August, Tuesday

Time Temperature Precipitation Wind Pressure Humidity
00:00 +15°C° 0 mm 2 mps 749 mmHg 85%
01:00 +15°C° 0 mm 2 mps 749 mmHg 86%
02:00 +15°C° 0 mm 2 mps 749 mmHg 85%
03:00 +15°C° 0 mm 2 mps 749 mmHg 85%
04:00 +14°C° 0 mm 3 mps 749 mmHg 84%
05:00 +14°C° 0.1 mm 3 mps 749 mmHg 86%
06:00 +13°C° 0.1 mm 3 mps 749 mmHg 88%
07:00 +13°C° 0.1 mm 3 mps 749 mmHg 90%
08:00 +14°C° 0.4 mm 5 mps 749 mmHg 89%
09:00 +14°C° 0.4 mm 6 mps 749 mmHg 87%
10:00 +15°C° 0.4 mm 7 mps 749 mmHg 86%
11:00 +15°C° 0.4 mm 7 mps 749 mmHg 87%
12:00 +15°C° 0.4 mm 7 mps 749 mmHg 88%
13:00 +15°C° 0.4 mm 7 mps 749 mmHg 89%
14:00 +15°C° 0.1 mm 7 mps 749 mmHg 88%
15:00 +15°C° 0.1 mm 7 mps 749 mmHg 87%
16:00 +15°C° 0.1 mm 7 mps 750 mmHg 86%
17:00 +15°C° 0 mm 8 mps 750 mmHg 87%
18:00 +15°C° 0 mm 8 mps 749 mmHg 87%
19:00 +15°C° 0 mm 8 mps 749 mmHg 87%
20:00 +15°C° 0 mm 7 mps 750 mmHg 89%
21:00 +14°C° 0 mm 6 mps 750 mmHg 90%
22:00 +14°C° 0 mm 5 mps 750 mmHg 91%
23:00 +14°C° 0.5 mm 5 mps 750 mmHg 93%

Tomorrow, 5 August, Wednesday

Time Temperature Precipitation Wind Pressure Humidity
00:00 +14°C° 0.5 mm 5 mps 750 mmHg 94%
01:00 +14°C° 0.5 mm 5 mps 749 mmHg 95%
02:00 +15°C° 0 mm 5 mps 750 mmHg 95%
03:00 +15°C° 0 mm 5 mps 750 mmHg 95%
04:00 +15°C° 0 mm 5 mps 750 mmHg 95%
05:00 +16°C° 0.1 mm 5 mps 750 mmHg 95%
06:00 +17°C° 0.1 mm 5 mps 750 mmHg 95%
07:00 +17°C° 0.1 mm 5 mps 750 mmHg 94%
08:00 +19°C° 0 mm 5 mps 750 mmHg 92%
09:00 +20°C° 0 mm 5 mps 751 mmHg 90%
10:00 +21°C° 0 mm 5 mps 751 mmHg 88%
11:00 +22°C° 0 mm 5 mps 751 mmHg 85%
12:00 +25°C° 0 mm 5 mps 751 mmHg 81%
13:00 +26°C° 0 mm 4 mps 750 mmHg 78%
14:00 +27°C° 0 mm 4 mps 751 mmHg 74%
15:00 +28°C° 0 mm 4 mps 751 mmHg 70%
16:00 +29°C° 0 mm 4 mps 751 mmHg 65%
17:00 +28°C° 0.1 mm 4 mps 751 mmHg 71%
18:00 +27°C° 0.1 mm 4 mps 750 mmHg 76%
19:00 +26°C° 0.1 mm 3 mps 750 mmHg 81%
20:00 +25°C° 0 mm 3 mps 751 mmHg 84%
21:00 +22°C° 0 mm 3 mps 751 mmHg 88%
22:00 +21°C° 0 mm 3 mps 751 mmHg 92%
23:00 +21°C° 0 mm 3 mps 751 mmHg 92%

Day after tomorrow, 6 August, Thursday

Time Temperature Precipitation Wind Pressure Humidity
00:00 +20°C° 0 mm 3 mps 751 mmHg 93%
01:00 +20°C° 0 mm 3 mps 751 mmHg 94%
02:00 +19°C° 0 mm 3 mps 751 mmHg 94%
03:00 +19°C° 0 mm 3 mps 751 mmHg 94%
04:00 +19°C° 0 mm 3 mps 751 mmHg 95%
05:00 +19°C° 0 mm 3 mps 751 mmHg 93%
06:00 +20°C° 0 mm 3 mps 751 mmHg 91%
07:00 +21°C° 0 mm 3 mps 751 mmHg 90%
08:00 +22°C° 0 mm 3 mps 751 mmHg 85%
09:00 +25°C° 0 mm 3 mps 751 mmHg 80%
10:00 +26°C° 0 mm 3 mps 751 mmHg 75%
11:00 +27°C° 0 mm 3 mps 751 mmHg 70%
12:00 +28°C° 0 mm 3 mps 751 mmHg 66%
13:00 +29°C° 0 mm 3 mps 751 mmHg 62%
14:00 +29°C° 0 mm 3 mps 751 mmHg 61%
15:00 +29°C° 0 mm 3 mps 751 mmHg 60%
16:00 +29°C° 0 mm 3 mps 751 mmHg 59%
17:00 +28°C° 0 mm 2 mps 750 mmHg 64%
18:00 +27°C° 0 mm 2 mps 750 mmHg 69%
19:00 +26°C° 0 mm 2 mps 750 mmHg 74%
20:00 +25°C° 0 mm 2 mps 750 mmHg 77%
21:00 +24°C° 0 mm 2 mps 750 mmHg 80%
22:00 +21°C° 0 mm 2 mps 750 mmHg 83%
23:00 +21°C° 0 mm 2 mps 750 mmHg 84%

7 August, Friday

Time Temperature Precipitation Wind Pressure Humidity
00:00 +20°C° 0 mm 2 mps 750 mmHg 85%
01:00 +20°C° 0 mm 2 mps 750 mmHg 86%
02:00 +19°C° 0 mm 2 mps 749 mmHg 88%
03:00 +19°C° 0 mm 2 mps 749 mmHg 90%
04:00 +19°C° 0 mm 2 mps 749 mmHg 91%
05:00 +20°C° 0 mm 2 mps 749 mmHg 89%
06:00 +20°C° 0 mm 2 mps 749 mmHg 87%
07:00 +22°C° 0 mm 1 mps 749 mmHg 84%
08:00 +24°C° 0 mm 2 mps 749 mmHg 79%
09:00 +25°C° 0 mm 2 mps 748 mmHg 73%
10:00 +27°C° 0 mm 2 mps 748 mmHg 67%
11:00 +28°C° 0.2 mm 2 mps 748 mmHg 64%
12:00 +29°C° 0.2 mm 2 mps 748 mmHg 60%
13:00 +29°C° 0.2 mm 2 mps 748 mmHg 57%
14:00 +30°C° 0.2 mm 2 mps 747 mmHg 56%
15:00 +30°C° 0.2 mm 2 mps 747 mmHg 55%
16:00 +30°C° 0.2 mm 2 mps 747 mmHg 54%
17:00 +29°C° 0.3 mm 2 mps 747 mmHg 61%
18:00 +27°C° 0.3 mm 2 mps 747 mmHg 68%
19:00 +26°C° 0.3 mm 3 mps 747 mmHg 75%
20:00 +25°C° 0.2 mm 3 mps 747 mmHg 79%
21:00 +22°C° 0.2 mm 3 mps 747 mmHg 83%
22:00 +21°C° 0.2 mm 3 mps 747 mmHg 87%
23:00 +20°C° 0.2 mm 4 mps 747 mmHg 90%

8 August, Saturday

Time Temperature Precipitation Wind Pressure Humidity
00:00 +19°C° 0.2 mm 5 mps 747 mmHg 92%
01:00 +19°C° 0.2 mm 6 mps 747 mmHg 95%
02:00 +17°C° 0.1 mm 6 mps 747 mmHg 92%
03:00 +15°C° 0.1 mm 6 mps 747 mmHg 90%
04:00 +14°C° 0.1 mm 6 mps 746 mmHg 88%
05:00 +15°C° 0 mm 6 mps 747 mmHg 87%
06:00 +15°C° 0 mm 6 mps 747 mmHg 85%
07:00 +15°C° 0 mm 6 mps 747 mmHg 84%
08:00 +16°C° 0 mm 6 mps 747 mmHg 80%
09:00 +17°C° 0 mm 6 mps 747 mmHg 77%
10:00 +18°C° 0 mm 7 mps 747 mmHg 74%
11:00 +20°C° 0 mm 7 mps 747 mmHg 72%
12:00 +21°C° 0 mm 7 mps 747 mmHg 70%
13:00 +21°C° 0 mm 7 mps 747 mmHg 68%
14:00 +21°C° 0 mm 8 mps 747 mmHg 69%
15:00 +20°C° 0 mm 8 mps 746 mmHg 70%
16:00 +20°C° 0 mm 8 mps 746 mmHg 71%
17:00 +18°C° 0 mm 7 mps 746 mmHg 72%
18:00 +17°C° 0 mm 7 mps 746 mmHg 74%
19:00 +17°C° 0 mm 6 mps 746 mmHg 75%
20:00 +16°C° 0 mm 6 mps 746 mmHg 74%
21:00 +15°C° 0 mm 6 mps 746 mmHg 74%
22:00 +14°C° 0 mm 6 mps 746 mmHg 74%
23:00 +14°C° 0 mm 6 mps 746 mmHg 75%

9 August, Sunday

Time Temperature Precipitation Wind Pressure Humidity
00:00 +13°C° 0 mm 6 mps 746 mmHg 76%
01:00 +13°C° 0 mm 6 mps 745 mmHg 76%
02:00 +11°C° 0 mm 6 mps 745 mmHg 76%
03:00 +11°C° 0 mm 6 mps 745 mmHg 76%
04:00 +10°C° 0 mm 7 mps 745 mmHg 76%
05:00 +10°C° 0 mm 7 mps 745 mmHg 78%
06:00 +10°C° 0 mm 7 mps 744 mmHg 79%
07:00 +10°C° 0 mm 7 mps 744 mmHg 81%
08:00 +11°C° 0 mm 7 mps 744 mmHg 79%
09:00 +14°C° 0 mm 7 mps 744 mmHg 77%
10:00 +15°C° 0 mm 7 mps 744 mmHg 75%
11:00 +16°C° 0 mm 7 mps 744 mmHg 72%
12:00 +17°C° 0 mm 7 mps 744 mmHg 70%
13:00 +18°C° 0 mm 7 mps 744 mmHg 67%
14:00 +18°C° 0 mm 7 mps 744 mmHg 68%
15:00 +19°C° 0 mm 6 mps 744 mmHg 69%
16:00 +19°C° 0 mm 5 mps 743 mmHg 70%
17:00 +17°C° 0.1 mm 5 mps 744 mmHg 73%
18:00 +16°C° 0.1 mm 5 mps 744 mmHg 76%
19:00 +15°C° 0.1 mm 5 mps 744 mmHg 79%
20:00 +15°C° 0 mm 5 mps 743 mmHg 77%
21:00 +15°C° 0 mm 5 mps 743 mmHg 74%
22:00 +15°C° 0 mm 5 mps 743 mmHg 72%
23:00 +14°C° 0 mm 6 mps 743 mmHg 74%
Show more